Regional Weather Roundup
Issued by NWS

Home | Current Version | Previous Version | Text Only | Print | Product List | Glossary Off
Versions: 1 2 3 4 5 6 7 8 9 10 11 12 13 14 15 16 17 18 19 20 21 22 23 24 25 26 27 28 29 30 31 32 33 34 35 36 37 38 39 40 41 42 43 44 45 46 47 48 49 50

347
ASUS45 KTFX 272010
RWRMT
MONTANA REGIONAL WEATHER ROUNDUP
NATIONAL WEATHER SERVICE GREAT FALLS MT
200 PM MDT TUE SEP 27 2016

NOTE: "FAIR" INDICATES FEW OR NO CLOUDS BELOW 12000 FEET WITH NO
SIGNIFICANT WEATHER AND/OR OBSTRUCTIONS TO VISIBILITY.

MTZ001>007-043-272100-
WEST OF THE DIVIDE

CITY           SKY/WX    TMP DP  RH WIND       PRES   REMARKS
KALISPELL      SUNNY     76  46  34 S13       30.02F
MISSOULA       SUNNY     73  46  38 SE3       30.08F
BUTTE          SUNNY     74  36  25 S5        30.19F
MULLAN PASS    SUNNY     64  43  46 VRB7      30.21S
ANACONDA         N/A     79  36  21 SW7       30.14F
DEER LODGE       N/A     79  37  22 CALM      30.14F
EUREKA           N/A     82  45  26 S9G17     29.99S
HAMILTON         N/A     73  48  40 N6        30.08F
LIBBY            N/A     77  48  36 NW6       29.99F
PLAINS           N/A     85  47  26 NW1       30.02
RONAN            N/A     82  45  27 S8        30.09F
THOMPSON FALLS   N/A     82  51  34 NW1       30.05F
$$

MTZ008-052>055-272100-
SOUTHWEST MONTANA

CITY           SKY/WX    TMP DP  RH WIND       PRES   REMARKS
BOZEMAN        SUNNY     75  42  30 CALM      30.14F
DILLON         SUNNY     76  35  22 SW3       30.17F
W YELLOWSTONE  SUNNY     68  32  26 W8        30.28F
ENNIS          SUNNY     75  32  20 CALM      30.23F
THREE FORKS      N/A     76  39  26 CALM      30.10F
TWIN BRIDGES     N/A     74  43  32 SE5       30.14F
$$

MTZ009-010-012-014-046-048-049-054-272100-
EAST SLOPES AND CENTRAL MONTANA

CITY           SKY/WX    TMP DP  RH WIND       PRES   REMARKS
CUT BANK       MOSUNNY   81  39  22 W20G26    30.01S
GREAT FALLS    SUNNY     82  39  21 SW14      30.01F
MALMSTROM AFB  SUNNY     82  40  22 SW14      30.02S
HELENA         SUNNY     75  43  31 CALM      30.08F
AUGUSTA          N/A     81  35  19 W16G25    30.05S
BOWMANS CRNR     N/A     79  39  24 SW13G22   30.04S
CHOTEAU          N/A     82  37  20 CALM      30.04S
CONRAD           N/A     84  41  22 S13       30.03S
FAIRFIELD        N/A     81  39  21 S8        30.02S
POWER            N/A     81  39  22 SW14G20   30.02S
RAYNESFORD       N/A     80  36  21 NW12G29   30.05S
$$

MTZ011-013-016-021-045-047-050-051-272100-
NORTH CENTRAL MONTANA

CITY           SKY/WX    TMP DP  RH WIND       PRES   REMARKS
HAVRE          SUNNY     84  47  27 SW16G24   29.93F
LEWISTOWN      SUNNY     80  38  22 NW8       30.06S
N BAR RANCH      N/A     79  41  25 N8G16     30.09S
CHINOOK          N/A     84  45  24 SW14      29.91F
DENTON           N/A     81  33  17 W15       29.99S
GEYSER           N/A     81  35  19 W16G25    30.05S
GRASS RANGE      N/A     79  39  23 NW8       30.01S
JUDITH GAP       N/A     78  38  24 NW5G23    30.08F
ROY              N/A     80  43  26 MISG      30.01F
STANFORD         N/A     79  34  19 NW14      30.07F
WINIFRED         N/A     79  41  25 MISG      30.02F
$$

MTZ017>020-022>027-061-062-272100-
NORTHEAST MONTANA

CITY           SKY/WX    TMP DP  RH WIND       PRES   REMARKS
GLASGOW        SUNNY     81  49  32 SW10      29.91F
JORDAN           N/A     83  44  25 W16       29.95F
SIDNEY         SUNNY     75  54  47 VRB5      29.92F
WOLF POINT     SUNNY     78  51  38 SW9       29.91F
PLENTYWOOD       N/A     75  48  38 S7        29.91F
POPLAR           N/A     75  50  41 SW8       29.91F
SCOBEY           N/A     82  45  27 SW14      29.89F
$$

MTZ028>42-056>058-272100-
SOUTHCENTRAL AND SOUTHEAST MONTANA

CITY           SKY/WX    TMP DP  RH WIND       PRES   REMARKS
BAKER          SUNNY     76  49  38 W13G18    29.99F
BILLINGS       SUNNY     80  45  28 SW12      30.05F
LIVINGSTON     SUNNY     81  39  22 NW7       30.12F
MILES CITY     SUNNY     81  46  29 W10       29.98F
BIG TIMBER     SUNNY     81  37  21 W16G25    30.13S
EKALAKA          N/A     76  45  33 W9        30.00F
FORSYTH          N/A     79  46  31 W7        29.99S
HARLOWTON        N/A     81  35  19 W22G29    30.07F
LAUREL           N/A     81  45  28 S5        30.04F
ROUNDUP          N/A     81  44  26 SE5       29.94F
$$

REGIONAL REPORTS...DAKOTAS

CITY           SKY/WX    TMP DP  RH WIND       PRES   REMARKS
WILLISTON      SUNNY     75  51  43 VRB6      29.92F
MINOT          SUNNY     70  39  32 N7        29.94F
DICKINSON      SUNNY     76  44  32 W7        29.94F
BEACH            N/A     77  46  33 NW12      29.99S
CROSBY           N/A     73  43  33 S8        29.94F
WATFORD CITY     N/A     75  46  35 CALM      29.93F
BISMARCK       SUNNY     71  40  32 VRB3      29.95F
GRAND FORKS    MOSUNNY   59  43  55 N16G25    29.89S
FARGO          SUNNY     65  42  43 N16       29.86S
BUFFALO SD       N/A     82  42  24 W12       29.92F
RAPID CITY     SUNNY     82  44  26 N13       30.00F
$$

REGIONAL REPORTS...WYOMING/IDAHO/WASHINGTON

CITY           SKY/WX    TMP DP  RH WIND       PRES   REMARKS
GILLETTE       SUNNY     78  41  26 NW10      30.09F
SHERIDAN       SUNNY     83  41  22 NW10      30.07F
BUFFALO WY     SUNNY     79  36  21 N12G23    30.14F
CODY           SUNNY     75  52  43 NE9       30.15F
YELLOWSTONE LA   N/A     61  41  47 E5        30.37F
IDAHO FALLS    SUNNY     72  42  34 VRB3      30.20F
SALMON         SUNNY     68  43  40 N3        30.15F
BOISE          SUNNY     78  45  30 N7        30.07F
SPOKANE        MOSUNNY   77  42  28 W14       30.05S
$$

REGIONAL REPORTS...ALBERTA

CITY           SKY/WX    TMP DP  RH WIND       PRES   REMARKS
EDMONTON       PTSUNNY   57  34  41 NW10      30.05R
CALGARY        MOSUNNY   55  37  50 N22G28    30.11R
LETHBRIDGE     MOSUNNY   70  46  43 N16G23    30.00R
MEDICINE HAT   MOSUNNY   77  48  36 N23G33    29.90R
WATERTON GATE    N/A     79  43  27 SW9G17      N/A
CARDSTON         N/A     70  45  40 N17G28      N/A
MILK RIVER       N/A     82  41  23 W15         N/A
ONEFOUR          N/A     84  36  17 W21G28      N/A
$$

REGIONAL REPORTS...SASKATCHEWAN

CITY           SKY/WX    TMP DP  RH WIND       PRES   REMARKS
SWIFT CURRENT  SUNNY     81  43  26 W15G21    29.86S
REGINA         MOSUNNY   75  48  38 SE16      29.87F
SASKATOON      MOSUNNY   73  48  40 S12       29.83R
CYPRESS HILLS    N/A     79  37  22 W14G24      N/A
VAL MARIE        N/A     84  41  21 W18G25      N/A
ROCKGLEN         N/A     77  46  33 W12         N/A
ASSINIBOIA       N/A     55  43  62 NW12        N/A
$$




USA.gov is the U.S. government's official web portal to all federal, state and local government web resources and services.